Year,Month,Day,Hour,Minute,Value (Times are PST for temperature in C)
2021,12,04,00,00,3.40
2021,12,04,00,01,3.40
2021,12,04,00,02,3.40
2021,12,04,00,03,3.40
2021,12,04,00,04,3.40
2021,12,04,00,05,3.40
2021,12,04,00,06,3.40
2021,12,04,00,07,3.40
2021,12,04,00,08,3.40
2021,12,04,00,09,3.40
2021,12,04,00,10,3.40
2021,12,04,00,11,3.40
2021,12,04,00,12,3.40
2021,12,04,00,13,3.40
2021,12,04,00,14,3.50
2021,12,04,00,15,3.50
2021,12,04,00,16,3.60
2021,12,04,00,17,3.60
2021,12,04,00,18,3.60
2021,12,04,00,19,3.60
2021,12,04,00,20,3.60
2021,12,04,00,21,3.60
2021,12,04,00,22,3.60
2021,12,04,00,23,3.60
2021,12,04,00,24,3.60
2021,12,04,00,25,3.60
2021,12,04,00,26,3.60
2021,12,04,00,27,3.60
2021,12,04,00,28,3.60
2021,12,04,00,29,3.60
2021,12,04,00,30,3.60
2021,12,04,00,31,3.60
2021,12,04,00,32,3.60
2021,12,04,00,33,3.60
2021,12,04,00,34,3.60
2021,12,04,00,35,3.60
2021,12,04,00,36,3.60
2021,12,04,00,37,3.60
2021,12,04,00,38,3.60
2021,12,04,00,39,3.60
2021,12,04,00,40,3.60
2021,12,04,00,41,3.60
2021,12,04,00,42,3.60
2021,12,04,00,43,3.60
2021,12,04,00,44,3.60
2021,12,04,00,45,3.60
2021,12,04,00,46,3.60
2021,12,04,00,47,3.60
2021,12,04,00,48,3.50
2021,12,04,00,49,3.50
2021,12,04,00,50,3.50
2021,12,04,00,51,3.50
2021,12,04,00,52,3.50
2021,12,04,00,53,3.50
2021,12,04,00,54,3.50
2021,12,04,00,55,3.50
2021,12,04,00,56,3.50
2021,12,04,00,57,3.50
2021,12,04,00,58,3.50
2021,12,04,00,59,3.50
2021,12,04,01,00,3.50
2021,12,04,01,01,3.50
2021,12,04,01,02,3.50
2021,12,04,01,03,3.50
2021,12,04,01,04,3.50
2021,12,04,01,05,3.50
2021,12,04,01,06,3.50
2021,12,04,01,07,3.50
2021,12,04,01,08,3.50
2021,12,04,01,09,3.50
2021,12,04,01,10,3.50
2021,12,04,01,11,3.50
2021,12,04,01,12,3.60
2021,12,04,01,13,3.60
2021,12,04,01,14,3.60
2021,12,04,01,15,3.60
2021,12,04,01,16,3.60
2021,12,04,01,17,3.50
2021,12,04,01,18,3.50
2021,12,04,01,19,3.50
2021,12,04,01,20,3.50
2021,12,04,01,21,3.50
2021,12,04,01,22,3.50
2021,12,04,01,23,3.50
2021,12,04,01,24,3.50
2021,12,04,01,25,3.60
2021,12,04,01,26,3.60
2021,12,04,01,27,3.60
2021,12,04,01,28,3.60
2021,12,04,01,29,3.60
2021,12,04,01,30,3.60
2021,12,04,01,31,3.60
2021,12,04,01,32,3.60
2021,12,04,01,33,3.70
2021,12,04,01,34,3.70
2021,12,04,01,35,3.70
2021,12,04,01,36,3.70
2021,12,04,01,37,3.70
2021,12,04,01,38,3.70
2021,12,04,01,39,3.80
2021,12,04,01,40,3.80
2021,12,04,01,41,3.80
2021,12,04,01,42,3.80
2021,12,04,01,43,3.80
2021,12,04,01,44,3.80
2021,12,04,01,45,3.80
2021,12,04,01,46,3.80
2021,12,04,01,47,3.80
2021,12,04,01,48,3.80
2021,12,04,01,49,3.80
2021,12,04,01,50,3.80
2021,12,04,01,51,3.80
2021,12,04,01,52,3.80
2021,12,04,01,53,3.80
2021,12,04,01,54,3.80
2021,12,04,01,55,3.80
2021,12,04,01,56,3.80
2021,12,04,01,57,3.80
2021,12,04,01,58,3.80
2021,12,04,01,59,3.80
2021,12,04,02,00,3.80
2021,12,04,02,01,3.80
2021,12,04,02,02,3.80
2021,12,04,02,03,3.80
2021,12,04,02,04,3.80
2021,12,04,02,05,3.90
2021,12,04,02,06,3.90
2021,12,04,02,07,3.90
2021,12,04,02,08,3.90
2021,12,04,02,09,3.90
2021,12,04,02,10,3.90
2021,12,04,02,11,3.90
2021,12,04,02,12,3.90
2021,12,04,02,13,3.90
2021,12,04,02,14,3.90
2021,12,04,02,15,3.90
2021,12,04,02,16,3.90
2021,12,04,02,17,3.90
2021,12,04,02,18,3.90
2021,12,04,02,19,3.90
2021,12,04,02,20,3.90
2021,12,04,02,21,3.90
2021,12,04,02,22,3.90
2021,12,04,02,23,3.90
2021,12,04,02,24,3.90
2021,12,04,02,25,3.90
2021,12,04,02,26,3.90
2021,12,04,02,27,3.90
2021,12,04,02,28,3.90
2021,12,04,02,29,3.90
2021,12,04,02,30,3.90
2021,12,04,02,31,3.90
2021,12,04,02,32,3.90
2021,12,04,02,33,3.90
2021,12,04,02,34,3.80
2021,12,04,02,35,3.80
2021,12,04,02,36,3.80
2021,12,04,02,37,3.80
2021,12,04,02,38,3.80
2021,12,04,02,39,3.80
2021,12,04,02,40,3.80
2021,12,04,02,41,3.80
2021,12,04,02,42,3.70
2021,12,04,02,43,3.70
2021,12,04,02,44,3.70
2021,12,04,02,45,3.70
2021,12,04,02,46,3.70
2021,12,04,02,47,3.70
2021,12,04,02,48,3.70
2021,12,04,02,49,3.70
2021,12,04,02,50,3.60
2021,12,04,02,51,3.60
2021,12,04,02,52,3.60
2021,12,04,02,53,3.60
2021,12,04,02,54,3.60
2021,12,04,02,55,3.60
2021,12,04,02,56,3.60
2021,12,04,02,57,3.60
2021,12,04,02,58,3.60
2021,12,04,02,59,3.60
2021,12,04,03,00,3.60
2021,12,04,03,01,3.60
2021,12,04,03,02,3.60
2021,12,04,03,03,3.50
2021,12,04,03,04,3.50
2021,12,04,03,05,3.50
2021,12,04,03,06,3.50
2021,12,04,03,07,3.50
2021,12,04,03,08,3.50
2021,12,04,03,09,3.50
2021,12,04,03,10,3.40
2021,12,04,03,11,3.40
2021,12,04,03,12,3.40
2021,12,04,03,13,3.40
2021,12,04,03,14,3.40
2021,12,04,03,15,3.40
2021,12,04,03,16,3.40
2021,12,04,03,17,3.40
2021,12,04,03,18,3.40
2021,12,04,03,19,3.40
2021,12,04,03,20,3.40
2021,12,04,03,21,3.40
2021,12,04,03,22,3.40
2021,12,04,03,23,3.40
2021,12,04,03,24,3.40
2021,12,04,03,25,3.40
2021,12,04,09,39,2.40
2021,12,04,09,40,2.40
2021,12,04,09,41,2.40
2021,12,04,09,42,2.40
2021,12,04,09,43,2.50
2021,12,04,09,44,2.50
2021,12,04,09,45,2.50
2021,12,04,09,46,2.50
2021,12,04,09,47,2.50
2021,12,04,09,48,2.50
2021,12,04,09,49,2.50
2021,12,04,09,50,2.50
2021,12,04,09,51,2.60
2021,12,04,09,52,2.60
2021,12,04,09,53,2.60
2021,12,04,09,54,2.60
2021,12,04,09,55,2.60
2021,12,04,09,56,2.60
2021,12,04,09,57,2.60
2021,12,04,09,58,2.60
2021,12,04,09,59,2.60
2021,12,04,10,00,2.60
2021,12,04,10,01,2.60
2021,12,04,10,02,2.60
2021,12,04,10,03,2.60
2021,12,04,10,04,2.60
2021,12,04,10,05,2.60
2021,12,04,10,06,2.60
2021,12,04,10,07,2.60
2021,12,04,10,08,2.60
2021,12,04,10,09,2.60
2021,12,04,10,10,2.60
2021,12,04,10,11,2.60
2021,12,04,10,12,2.60
2021,12,04,10,13,2.60
2021,12,04,10,14,2.60
2021,12,04,10,15,2.60
2021,12,04,10,16,2.60
2021,12,04,10,17,2.60
2021,12,04,10,18,2.60
2021,12,04,10,19,2.70
2021,12,04,10,20,2.70
2021,12,04,10,21,2.70
2021,12,04,10,22,2.70
2021,12,04,10,23,2.70
2021,12,04,10,24,2.70
2021,12,04,10,25,2.70
2021,12,04,10,26,2.70
2021,12,04,10,27,2.70
2021,12,04,10,28,2.70
2021,12,04,10,29,2.70
2021,12,04,10,30,2.70
2021,12,04,10,31,2.80
2021,12,04,10,32,2.80
2021,12,04,10,33,2.80
2021,12,04,10,34,2.70
2021,12,04,10,35,2.70
2021,12,04,10,36,2.70
2021,12,04,10,37,2.70
2021,12,04,10,38,2.70
2021,12,04,10,39,2.70
2021,12,04,10,40,2.70
2021,12,04,10,41,2.80
2021,12,04,10,42,2.80
2021,12,04,10,43,2.80
2021,12,04,10,44,2.80
2021,12,04,10,45,2.80
2021,12,04,10,46,2.80
2021,12,04,10,47,2.80
2021,12,04,10,48,2.80
2021,12,04,10,49,2.80
2021,12,04,10,50,2.80
2021,12,04,10,51,2.80
2021,12,04,10,52,2.80
2021,12,04,10,53,2.80
2021,12,04,10,54,2.80
2021,12,04,10,55,2.80
2021,12,04,10,56,2.90
2021,12,04,10,57,2.80
2021,12,04,10,58,2.80
2021,12,04,10,59,2.90
2021,12,04,11,00,2.90
2021,12,04,11,01,2.90
2021,12,04,11,02,2.90
2021,12,04,11,03,2.90
2021,12,04,11,04,2.90
2021,12,04,11,05,2.90
2021,12,04,11,06,2.90
2021,12,04,11,07,2.90
2021,12,04,11,08,2.90
2021,12,04,11,09,2.90
2021,12,04,11,10,2.90
2021,12,04,11,11,2.90
2021,12,04,11,12,2.90
2021,12,04,11,13,2.90
2021,12,04,11,14,3.00
2021,12,04,11,15,3.00
2021,12,04,11,16,3.00
2021,12,04,11,17,3.00
2021,12,04,11,18,3.00
2021,12,04,11,19,3.10
2021,12,04,11,20,3.10
2021,12,04,11,21,3.10
2021,12,04,11,22,3.10
2021,12,04,11,23,3.10
2021,12,04,11,24,3.10
2021,12,04,11,25,3.10
2021,12,04,11,26,3.10
2021,12,04,11,27,3.10
2021,12,04,11,28,3.10
2021,12,04,11,29,3.20
2021,12,04,11,30,3.20
2021,12,04,11,31,3.20
2021,12,04,11,32,3.20
2021,12,04,11,33,3.20
2021,12,04,11,34,3.20
2021,12,04,11,35,3.20
2021,12,04,11,36,3.30
2021,12,04,11,37,3.30
2021,12,04,11,38,3.30
2021,12,04,11,39,3.30
2021,12,04,11,40,3.30
2021,12,04,11,41,3.30
2021,12,04,11,42,3.40
2021,12,04,11,43,3.40
2021,12,04,11,44,3.30
2021,12,04,11,45,3.40
2021,12,04,11,46,3.40
2021,12,04,11,47,3.40
2021,12,04,11,48,3.40
2021,12,04,11,49,3.40
2021,12,04,11,50,3.40
2021,12,04,11,51,3.40
2021,12,04,11,52,3.40
2021,12,04,11,53,3.40
2021,12,04,11,54,3.40
2021,12,04,11,55,3.40
2021,12,04,11,56,3.40
2021,12,04,11,57,3.40
2021,12,04,11,58,3.40
2021,12,04,11,59,3.40
2021,12,04,12,00,3.40
2021,12,04,12,01,3.40
2021,12,04,12,02,3.40
2021,12,04,12,03,3.50
2021,12,04,12,04,3.50
2021,12,04,12,05,3.50
2021,12,04,12,06,3.50
2021,12,04,12,07,3.50
2021,12,04,12,08,3.50
2021,12,04,12,09,3.50
2021,12,04,12,10,3.50
2021,12,04,12,11,3.50
2021,12,04,12,12,3.40
2021,12,04,12,13,3.40
2021,12,04,12,14,3.40
2021,12,04,12,15,3.40
2021,12,04,12,16,3.50
2021,12,04,12,17,3.40
2021,12,04,12,18,3.40
2021,12,04,12,19,3.40
2021,12,04,12,20,3.40
2021,12,04,12,21,3.50
2021,12,04,12,22,3.50
2021,12,04,12,23,3.50
2021,12,04,12,24,3.50
2021,12,04,12,25,3.40
2021,12,04,12,26,3.40
2021,12,04,12,27,3.40
2021,12,04,12,28,3.50
2021,12,04,12,29,3.50
2021,12,04,12,30,3.50
2021,12,04,12,31,3.60
2021,12,04,12,32,3.60
2021,12,04,12,33,3.60
2021,12,04,12,34,3.60
2021,12,04,12,35,3.60
2021,12,04,12,36,3.60
2021,12,04,12,37,3.60
2021,12,04,12,38,3.60
2021,12,04,12,39,3.60
2021,12,04,12,40,3.60
2021,12,04,12,41,3.60
2021,12,04,12,42,3.60
2021,12,04,12,43,3.60
2021,12,04,12,44,3.60
2021,12,04,12,45,3.60
2021,12,04,12,46,3.60
2021,12,04,12,47,3.70
2021,12,04,12,48,3.70
2021,12,04,12,49,3.70
2021,12,04,12,50,3.70
2021,12,04,12,51,3.70
2021,12,04,12,52,3.60
2021,12,04,12,53,3.60
2021,12,04,12,54,3.60
2021,12,04,12,55,3.60
2021,12,04,12,56,3.60
2021,12,04,12,57,3.70
2021,12,04,12,58,3.70
2021,12,04,12,59,3.70
2021,12,04,13,00,3.70
2021,12,04,13,01,3.60
2021,12,04,13,02,3.60
2021,12,04,13,03,3.70
2021,12,04,13,04,3.60
2021,12,04,13,05,3.70
2021,12,04,13,06,3.70
2021,12,04,13,07,3.70
2021,12,04,13,08,3.70
2021,12,04,13,09,3.70
2021,12,04,13,10,3.70
2021,12,04,13,11,3.70
2021,12,04,13,12,3.70
2021,12,04,13,13,3.70
2021,12,04,13,14,3.70
2021,12,04,13,15,3.70
2021,12,04,13,16,3.70
2021,12,04,13,17,3.70
2021,12,04,13,18,3.80
2021,12,04,13,19,3.80
2021,12,04,13,20,3.80
2021,12,04,13,21,3.80
2021,12,04,13,22,3.80
2021,12,04,13,23,3.80
2021,12,04,13,24,3.80
2021,12,04,13,25,3.80
2021,12,04,13,26,3.80
2021,12,04,13,27,3.80
2021,12,04,13,28,3.80
2021,12,04,13,29,3.80
2021,12,04,13,30,3.80
2021,12,04,13,31,3.80
2021,12,04,13,32,3.80
2021,12,04,13,33,3.80
2021,12,04,13,34,3.80
2021,12,04,13,35,3.80
2021,12,04,13,36,3.80
2021,12,04,13,37,3.80
2021,12,04,13,38,3.80
2021,12,04,13,39,3.80
2021,12,04,13,40,3.80
2021,12,04,13,41,3.80
2021,12,04,13,42,3.80
2021,12,04,13,43,3.80
2021,12,04,13,44,3.80
2021,12,04,13,45,3.80
2021,12,04,13,46,3.80
2021,12,04,13,47,3.80
2021,12,04,13,48,3.80
2021,12,04,13,49,3.80
2021,12,04,13,50,3.80
2021,12,04,13,51,3.80
2021,12,04,13,52,3.80
2021,12,04,13,53,3.80
2021,12,04,13,54,3.80
2021,12,04,13,55,3.80
2021,12,04,13,56,3.80
2021,12,04,13,57,3.70
2021,12,04,13,58,3.70
2021,12,04,13,59,3.70
2021,12,04,14,00,3.70
2021,12,04,14,01,3.70
2021,12,04,14,02,3.70
2021,12,04,14,03,3.70
2021,12,04,14,04,3.70
2021,12,04,14,05,3.70
2021,12,04,14,06,3.70
2021,12,04,14,07,3.70
2021,12,04,14,08,3.70
2021,12,04,14,09,3.70
2021,12,04,14,10,3.70
2021,12,04,14,11,3.70
2021,12,04,14,12,3.70
2021,12,04,14,13,3.70
2021,12,04,14,14,3.80
2021,12,04,14,15,3.80
2021,12,04,14,16,3.80
2021,12,04,14,17,3.80
2021,12,04,14,18,3.80
2021,12,04,14,19,3.80
2021,12,04,14,20,3.80
2021,12,04,14,21,3.80
2021,12,04,14,22,3.80
2021,12,04,14,23,3.80
2021,12,04,14,24,3.80
2021,12,04,14,25,3.80
2021,12,04,14,26,3.80
2021,12,04,14,27,3.80
2021,12,04,14,28,3.80
2021,12,04,14,29,3.80
2021,12,04,14,30,3.80
2021,12,04,14,31,3.80
2021,12,04,14,32,3.80
2021,12,04,14,33,3.80
2021,12,04,14,34,3.80
2021,12,04,14,35,3.80
2021,12,04,14,36,3.80
2021,12,04,14,37,3.80
2021,12,04,14,38,3.80
2021,12,04,14,39,3.80
2021,12,04,14,40,3.80
2021,12,04,14,41,3.80
2021,12,04,14,42,3.80
2021,12,04,14,43,3.80
2021,12,04,14,44,3.80
2021,12,04,14,45,3.80
2021,12,04,14,46,3.80
2021,12,04,14,47,3.80
2021,12,04,14,48,3.80
2021,12,04,14,49,3.80
2021,12,04,14,50,3.80
2021,12,04,14,51,3.80
2021,12,04,14,52,3.80
2021,12,04,14,53,3.80
2021,12,04,14,54,3.80
2021,12,04,14,55,3.80
2021,12,04,14,56,3.80
2021,12,04,14,57,3.80
2021,12,04,14,58,3.80
2021,12,04,14,59,3.80
2021,12,04,15,00,3.80
2021,12,04,15,01,3.80
2021,12,04,15,02,3.80
2021,12,04,15,03,3.80
2021,12,04,15,04,3.80
2021,12,04,15,05,3.80
2021,12,04,15,06,3.80
2021,12,04,15,07,3.80
2021,12,04,15,08,3.80
2021,12,04,15,09,3.80
2021,12,04,15,10,3.80
2021,12,04,15,11,3.80
2021,12,04,15,12,3.80
2021,12,04,15,13,3.80
2021,12,04,15,14,3.80
2021,12,04,15,15,3.80
2021,12,04,15,16,3.80
2021,12,04,15,17,3.80
2021,12,04,15,18,3.80
2021,12,04,15,19,3.80
2021,12,04,15,20,3.80
2021,12,04,15,21,3.80
2021,12,04,15,22,3.80
2021,12,04,15,23,3.80
2021,12,04,15,24,3.80
2021,12,04,15,25,3.70
2021,12,04,15,26,3.70
2021,12,04,15,27,3.70
2021,12,04,15,28,3.70
2021,12,04,15,29,3.70
2021,12,04,15,30,3.70
2021,12,04,15,31,3.70
2021,12,04,15,32,3.70
2021,12,04,15,33,3.70
2021,12,04,15,34,3.70
2021,12,04,15,35,3.70
2021,12,04,15,36,3.70
2021,12,04,15,37,3.70
2021,12,04,15,38,3.60
2021,12,04,15,39,3.60
2021,12,04,15,40,3.60
2021,12,04,15,41,3.60
2021,12,04,15,42,3.60
2021,12,04,15,43,3.60
2021,12,04,15,44,3.60
2021,12,04,15,45,3.60
2021,12,04,15,46,3.60
2021,12,04,15,47,3.60
2021,12,04,15,48,3.60
2021,12,04,15,49,3.60
2021,12,04,15,50,3.60
2021,12,04,15,51,3.60
2021,12,04,15,52,3.60
2021,12,04,15,53,3.60
2021,12,04,15,54,3.60
2021,12,04,15,55,3.60
2021,12,04,15,56,3.60
2021,12,04,15,57,3.60
2021,12,04,15,58,3.60
2021,12,04,15,59,3.70
2021,12,04,16,00,3.70
2021,12,04,16,01,3.70
2021,12,04,16,02,3.70
2021,12,04,16,03,3.70
2021,12,04,16,04,3.70
2021,12,04,16,05,3.70
2021,12,04,16,06,3.70
2021,12,04,16,07,3.70
2021,12,04,16,08,3.70
2021,12,04,16,09,3.70
2021,12,04,16,10,3.70
2021,12,04,16,11,3.70
2021,12,04,16,12,3.70
2021,12,04,16,13,3.70
2021,12,04,16,14,3.70
2021,12,04,16,15,3.70
2021,12,04,16,16,3.70
2021,12,04,16,17,3.70
2021,12,04,16,18,3.60
2021,12,04,16,19,3.60
2021,12,04,16,20,3.60
2021,12,04,16,21,3.60
2021,12,04,16,22,3.60
2021,12,04,16,23,3.60
2021,12,04,16,24,3.60
2021,12,04,16,25,3.60
2021,12,04,16,26,3.50
2021,12,04,16,27,3.50
2021,12,04,16,28,3.50
2021,12,04,16,29,3.50
2021,12,04,16,30,3.50
2021,12,04,16,31,3.40
2021,12,04,16,32,3.40
2021,12,04,16,33,3.40
2021,12,04,16,34,3.40
2021,12,04,16,35,3.40
2021,12,04,16,36,3.40
2021,12,04,16,37,3.40
2021,12,04,16,38,3.40
2021,12,04,16,39,3.40
2021,12,04,16,40,3.30
2021,12,04,16,41,3.30
2021,12,04,16,42,3.30
2021,12,04,16,43,3.30
2021,12,04,16,44,3.20
2021,12,04,16,45,3.20
2021,12,04,16,46,3.20
2021,12,04,16,47,3.20
2021,12,04,16,48,3.20
2021,12,04,16,49,3.20
2021,12,04,16,50,3.20
2021,12,04,16,51,3.20
2021,12,04,16,52,3.20
2021,12,04,16,53,3.20
2021,12,04,16,54,3.20
2021,12,04,16,55,3.20
2021,12,04,16,56,3.20
2021,12,04,16,57,3.20
2021,12,04,16,58,3.20
2021,12,04,16,59,3.20
2021,12,04,17,00,3.20
2021,12,04,17,01,3.20
2021,12,04,17,02,3.20
2021,12,04,17,03,3.20
2021,12,04,17,04,3.20
2021,12,04,17,05,3.20
2021,12,04,17,06,3.20
2021,12,04,17,07,3.20
2021,12,04,17,08,3.10
2021,12,04,17,09,3.10
2021,12,04,17,10,3.10
2021,12,04,17,11,3.10
2021,12,04,17,12,3.10
2021,12,04,17,13,3.00
2021,12,04,17,14,3.00
2021,12,04,17,15,3.00
2021,12,04,17,16,2.90
2021,12,04,17,17,2.90
2021,12,04,17,18,2.90
2021,12,04,17,19,2.90
2021,12,04,17,20,2.90
2021,12,04,17,21,2.90
2021,12,04,17,22,2.90
2021,12,04,17,23,2.80
2021,12,04,17,24,2.80
2021,12,04,17,25,2.80
2021,12,04,17,26,2.80
2021,12,04,17,27,2.80
2021,12,04,17,28,2.70
2021,12,04,17,29,2.70
2021,12,04,17,30,2.70
2021,12,04,17,31,2.70
2021,12,04,17,32,2.70
2021,12,04,17,33,2.70
2021,12,04,17,34,2.70
2021,12,04,17,35,2.70
2021,12,04,17,36,2.70
2021,12,04,17,37,2.70
2021,12,04,17,38,2.70
2021,12,04,17,39,2.70
2021,12,04,17,40,2.70
2021,12,04,17,41,2.70
2021,12,04,17,42,2.70
2021,12,04,17,43,2.70
2021,12,04,17,44,2.70
2021,12,04,17,45,2.70
2021,12,04,17,46,2.70
2021,12,04,17,47,2.70
2021,12,04,17,48,2.70
2021,12,04,17,49,2.70
2021,12,04,17,50,2.70
2021,12,04,17,51,2.70
2021,12,04,17,52,2.60
2021,12,04,17,53,2.50
2021,12,04,17,54,2.50
2021,12,04,17,55,2.40
2021,12,04,17,56,2.30
2021,12,04,17,57,2.30
2021,12,04,17,58,2.30
2021,12,04,17,59,2.20
2021,12,04,18,00,2.20
2021,12,04,18,01,2.10
2021,12,04,18,02,2.10
2021,12,04,18,03,2.10
2021,12,04,18,04,2.00
2021,12,04,18,05,2.00
2021,12,04,18,06,2.00
2021,12,04,18,07,1.90
2021,12,04,18,08,1.90
2021,12,04,18,09,1.90
2021,12,04,18,10,1.80
2021,12,04,18,11,1.80
2021,12,04,18,12,1.80
2021,12,04,18,13,1.70
2021,12,04,18,14,1.70
2021,12,04,18,15,1.70
2021,12,04,18,16,1.60
2021,12,04,18,17,1.60
2021,12,04,18,18,1.60
2021,12,04,18,19,1.50
2021,12,04,18,20,1.50
2021,12,04,18,21,1.50
2021,12,04,18,22,1.50
2021,12,04,18,23,1.40
2021,12,04,18,24,1.40
2021,12,04,18,25,1.40
2021,12,04,18,26,1.40
2021,12,04,18,27,1.40
2021,12,04,18,28,1.40
2021,12,04,18,29,1.40
2021,12,04,18,30,1.40
2021,12,04,18,31,1.40
2021,12,04,18,32,1.40
2021,12,04,18,33,1.40
2021,12,04,18,34,1.40
2021,12,04,18,35,1.40
2021,12,04,18,36,1.40
2021,12,04,18,37,1.30
2021,12,04,18,38,1.30
2021,12,04,18,39,1.30
2021,12,04,18,40,1.30
2021,12,04,18,41,1.30
2021,12,04,18,42,1.20
2021,12,04,18,43,1.20
2021,12,04,18,44,1.20
2021,12,04,18,45,1.20
2021,12,04,18,46,1.20
2021,12,04,18,47,1.10
2021,12,04,18,48,1.10
2021,12,04,18,49,1.10
2021,12,04,18,50,1.10
2021,12,04,18,51,1.10
2021,12,04,18,52,1.10
2021,12,04,18,53,1.10
2021,12,04,18,54,1.10
2021,12,04,18,55,1.10
2021,12,04,18,56,1.00
2021,12,04,18,57,1.00
2021,12,04,18,58,1.00
2021,12,04,18,59,1.00
2021,12,04,19,00,1.00
2021,12,04,19,01,0.90
2021,12,04,19,02,0.90
2021,12,04,19,03,0.90
2021,12,04,19,04,0.90
2021,12,04,19,05,0.90
2021,12,04,19,06,0.90
2021,12,04,19,07,0.90
2021,12,04,19,08,0.80
2021,12,04,19,09,0.80
2021,12,04,19,10,0.80
2021,12,04,19,11,0.80
2021,12,04,19,12,0.70
2021,12,04,19,13,0.70
2021,12,04,19,14,0.70
2021,12,04,19,15,0.70
2021,12,04,19,16,0.70
2021,12,04,19,17,0.70
2021,12,04,19,18,0.70
2021,12,04,19,19,0.70
2021,12,04,19,20,0.70
2021,12,04,19,21,0.70
2021,12,04,19,22,0.70
2021,12,04,19,23,0.70
2021,12,04,19,24,0.70
2021,12,04,19,25,0.70
2021,12,04,19,26,0.70
2021,12,04,19,27,0.70
2021,12,04,19,28,0.70
2021,12,04,19,29,0.60
2021,12,04,19,30,0.60
2021,12,04,19,31,0.60
2021,12,04,19,32,0.60
2021,12,04,19,33,0.60
2021,12,04,19,34,0.60
2021,12,04,19,35,0.60
2021,12,04,19,36,0.60
2021,12,04,19,37,0.60
2021,12,04,19,38,0.60
2021,12,04,19,39,0.60
2021,12,04,19,40,0.60
2021,12,04,19,41,0.60
2021,12,04,19,42,0.60
2021,12,04,19,43,0.60
2021,12,04,19,44,0.60
2021,12,04,19,45,0.60
2021,12,04,19,46,0.60
2021,12,04,19,47,0.60
2021,12,04,19,48,0.60
2021,12,04,19,49,0.60
2021,12,04,19,50,0.60
2021,12,04,19,51,0.60
2021,12,04,19,52,0.60
2021,12,04,19,53,0.70
2021,12,04,19,54,0.70
2021,12,04,19,55,0.70
2021,12,04,19,56,0.70
2021,12,04,19,57,0.70
2021,12,04,19,58,0.70
2021,12,04,19,59,0.70
2021,12,04,20,00,0.70
2021,12,04,20,01,0.70
2021,12,04,20,02,0.70
2021,12,04,20,03,0.60
2021,12,04,20,04,0.50
2021,12,04,20,05,0.40
2021,12,04,20,06,0.40
2021,12,04,20,07,0.30
2021,12,04,20,08,0.20
2021,12,04,20,09,0.20
2021,12,04,20,10,0.10
2021,12,04,20,11,0.10
2021,12,04,20,12,0.10
2021,12,04,20,13,0.00
2021,12,04,20,14,0.00
2021,12,04,20,15,-0.10
2021,12,04,20,16,-0.10
2021,12,04,20,17,-0.10
2021,12,04,20,18,-0.10
2021,12,04,20,19,-0.20
2021,12,04,20,20,-0.20
2021,12,04,20,21,-0.20
2021,12,04,20,22,-0.20
2021,12,04,20,23,-0.20
2021,12,04,20,24,-0.20
2021,12,04,20,25,-0.20
2021,12,04,20,26,-0.20
2021,12,04,20,27,-0.20
2021,12,04,20,28,-0.20
2021,12,04,20,29,-0.20
2021,12,04,20,30,-0.20
2021,12,04,20,31,-0.10
2021,12,04,20,32,-0.10
2021,12,04,20,33,-0.10
2021,12,04,20,34,-0.10
2021,12,04,20,35,-0.10
2021,12,04,20,36,-0.20
2021,12,04,20,37,-0.20
2021,12,04,20,38,-0.20
2021,12,04,20,39,-0.20
2021,12,04,20,40,-0.30
2021,12,04,20,41,-0.30
2021,12,04,20,42,-0.40
2021,12,04,20,43,-0.40
2021,12,04,20,44,-0.40
2021,12,04,20,45,-0.40
2021,12,04,20,46,-0.50
2021,12,04,20,47,-0.50
2021,12,04,20,48,-0.50
2021,12,04,20,49,-0.50
2021,12,04,20,50,-0.50
2021,12,04,20,51,-0.50
2021,12,04,20,52,-0.50
2021,12,04,20,53,-0.50
2021,12,04,20,54,-0.50
2021,12,04,20,55,-0.60
2021,12,04,20,56,-0.60
2021,12,04,20,57,-0.50
2021,12,04,20,58,-0.50
2021,12,04,20,59,-0.60
2021,12,04,21,00,-0.60
2021,12,04,21,01,-0.60
2021,12,04,21,02,-0.60
2021,12,04,21,03,-0.60
2021,12,04,21,04,-0.60
2021,12,04,21,05,-0.70
2021,12,04,21,06,-0.70
2021,12,04,21,07,-0.70
2021,12,04,21,08,-0.70
2021,12,04,21,09,-0.70
2021,12,04,21,10,-0.70
2021,12,04,21,11,-0.70
2021,12,04,21,12,-0.70
2021,12,04,21,13,-0.60
2021,12,04,21,14,-0.60
2021,12,04,21,15,-0.60
2021,12,04,21,16,-0.60
2021,12,04,21,17,-0.60
2021,12,04,21,18,-0.60
2021,12,04,21,19,-0.60
2021,12,04,21,20,-0.60
2021,12,04,21,21,-0.60
2021,12,04,21,22,-0.60
2021,12,04,21,23,-0.70
2021,12,04,21,24,-0.70
2021,12,04,21,25,-0.70
2021,12,04,21,26,-0.70
2021,12,04,21,27,-0.80
2021,12,04,21,28,-0.80
2021,12,04,21,29,-0.80
2021,12,04,21,30,-0.80
2021,12,04,21,31,-0.80
2021,12,04,21,32,-0.80
2021,12,04,21,33,-0.80
2021,12,04,21,34,-0.80
2021,12,04,21,35,-0.70
2021,12,04,21,36,-0.70
2021,12,04,21,37,-0.70
2021,12,04,21,38,-0.70
2021,12,04,21,39,-0.70
2021,12,04,21,40,-0.60
2021,12,04,21,41,-0.60
2021,12,04,21,42,-0.60
2021,12,04,21,43,-0.60
2021,12,04,21,44,-0.60
2021,12,04,21,45,-0.70
2021,12,04,21,46,-0.70
2021,12,04,21,47,-0.70
2021,12,04,21,48,-0.70
2021,12,04,21,49,-0.70
2021,12,04,21,50,-0.70
2021,12,04,21,51,-0.70
2021,12,04,21,52,-0.70
2021,12,04,21,53,-0.70
2021,12,04,21,54,-0.70
2021,12,04,21,55,-0.60
2021,12,04,21,56,-0.50
2021,12,04,21,57,-0.50
2021,12,04,21,58,-0.40
2021,12,04,21,59,-0.40
2021,12,04,22,00,-0.30
2021,12,04,22,01,-0.40
2021,12,04,22,02,-0.40
2021,12,04,22,03,-0.40
2021,12,04,22,04,-0.40
2021,12,04,22,05,-0.50
2021,12,04,22,06,-0.50
2021,12,04,22,07,-0.50
2021,12,04,22,08,-0.50
2021,12,04,22,09,-0.60
2021,12,04,22,10,-0.60
2021,12,04,22,11,-0.60
2021,12,04,22,12,-0.60
2021,12,04,22,13,-0.60
2021,12,04,22,14,-0.60
2021,12,04,22,15,-0.60
2021,12,04,22,16,-0.60
2021,12,04,22,17,-0.60
2021,12,04,22,18,-0.60
2021,12,04,22,19,-0.70
2021,12,04,22,20,-0.70
2021,12,04,22,21,-0.70
2021,12,04,22,22,-0.80
2021,12,04,22,23,-0.80
2021,12,04,22,24,-0.80
2021,12,04,22,25,-0.80
2021,12,04,22,26,-0.80
2021,12,04,22,27,-0.80
2021,12,04,22,28,-0.80
2021,12,04,22,29,-0.80
2021,12,04,22,30,-0.80
2021,12,04,22,31,-0.80
2021,12,04,22,32,-0.80
2021,12,04,22,33,-0.80
2021,12,04,22,34,-0.80
2021,12,04,22,35,-0.80
2021,12,04,22,36,-0.80
2021,12,04,22,37,-0.80
2021,12,04,22,38,-0.80
2021,12,04,22,39,-0.80
2021,12,04,22,40,-0.80
2021,12,04,22,41,-0.80
2021,12,04,22,42,-0.80
2021,12,04,22,43,-0.90
2021,12,04,22,44,-0.90
2021,12,04,22,45,-0.90
2021,12,04,22,46,-1.00
2021,12,04,22,47,-1.00
2021,12,04,22,48,-1.00
2021,12,04,22,49,-1.10
2021,12,04,22,50,-1.10
2021,12,04,22,51,-1.10
2021,12,04,22,52,-1.10
2021,12,04,22,53,-1.10
2021,12,04,22,54,-1.20
2021,12,04,22,55,-1.20
2021,12,04,22,56,-1.20
2021,12,04,22,57,-1.20
2021,12,04,22,58,-1.20
2021,12,04,22,59,-1.20
2021,12,04,23,00,-1.20
2021,12,04,23,01,-1.20
2021,12,04,23,02,-1.20
2021,12,04,23,03,-1.20
2021,12,04,23,04,-1.20
2021,12,04,23,05,-1.20
2021,12,04,23,06,-1.10
2021,12,04,23,07,-1.10
2021,12,04,23,08,-1.10
2021,12,04,23,09,-1.10
2021,12,04,23,10,-1.10
2021,12,04,23,11,-1.10
2021,12,04,23,12,-1.10
2021,12,04,23,13,-1.20
2021,12,04,23,14,-1.20
2021,12,04,23,15,-1.10
2021,12,04,23,16,-1.10
2021,12,04,23,17,-1.00
2021,12,04,23,18,-0.90
2021,12,04,23,19,-0.80
2021,12,04,23,20,-0.80
2021,12,04,23,21,-0.80
2021,12,04,23,22,-0.70
2021,12,04,23,23,-0.70
2021,12,04,23,24,-0.70
2021,12,04,23,25,-0.70
2021,12,04,23,26,-0.70
2021,12,04,23,27,-0.70
2021,12,04,23,28,-0.70
2021,12,04,23,29,-0.80
2021,12,04,23,30,-0.80
2021,12,04,23,31,-0.80
2021,12,04,23,32,-0.80
2021,12,04,23,33,-0.80
2021,12,04,23,34,-0.80
2021,12,04,23,35,-0.80
2021,12,04,23,36,-0.80
2021,12,04,23,37,-0.80
2021,12,04,23,38,-0.80
2021,12,04,23,39,-0.80
2021,12,04,23,40,-0.80
2021,12,04,23,41,-0.90
2021,12,04,23,42,-0.90
2021,12,04,23,43,-0.90
2021,12,04,23,44,-0.90
2021,12,04,23,45,-0.90
2021,12,04,23,46,-0.90
2021,12,04,23,47,-0.90
2021,12,04,23,48,-0.90
2021,12,04,23,49,-0.80
2021,12,04,23,50,-0.80
2021,12,04,23,51,-0.80
2021,12,04,23,52,-0.80
2021,12,04,23,53,-0.80
2021,12,04,23,54,-0.90
2021,12,04,23,55,-0.90
2021,12,04,23,56,-1.00
2021,12,04,23,57,-1.00
2021,12,04,23,58,-1.10
2021,12,04,23,59,-1.10
